Wind_Speed
26 35 36 29 24 15 12 22 27 22 27 30 34 38 37 30 30 28 25 23 25 26 26 26 26 24 22 25 25 25 26 29 26 21 19 23 26 27 28 31 31 31 32
38 47 38 36 27 27 21 29 32 35 34 30 27 24 26 30 25 22 24 20 24 27 24 23 23 28 30 28 25 27 28 27 32 28 23 24 24 28 30 31 33 34 35
43 43 45 43 32 33 35 39 37 40 45 42 36 17 26 20 27 29 26 24 24 27 25 23 25 27 27 28 29 27 26 28 29 31 28 26 28 31 30 31 36 37 32
44 52 52 50 38 35 33 27 31 37 34 43 45 33 28 26 27 26 29 29 30 28 26 24 23 23 24 22 28 31 29 26 26 25 28 31 31 32 37 36 35 39 41
40 50 48 49 42 39 34 39 33 28 29 36 35 38 34 29 32 32 34 32 32 32 31 30 30 30 30 29 26 28 33 31 30 29 27 27 32 34 36 38 38 38 43
43 45 48 50 47 46 42 40 40 36 35 29 32 29 26 26 27 27 33 36 35 37 37 39 37 36 36 37 38 37 33 36 35 34 32 31 29 31 36 39 42 44 43
42 48 48 48 46 48 47 44 39 36 40 37 30 33 30 31 30 30 31 34 36 37 37 39 41 42 41 39 41 42 44 42 38 38 38 36 35 34 33 39 42 44 44
40 41 43 43 46 46 49 47 48 45 43 39 39 38 37 35 34 34 35 35 35 37 40 39 41 43 43 44 44 43 45 46 46 46 44 42 42 41 40 38 41 44 46
38 34 39 45 50 51 51 48 49 48 45 48 45 44 46 41 40 37 38 42 43 42 44 46 45 46 47 48 47 48 48 48 48 48 48 49 49 49 48 46 45 44 45
33 40 36 41 47 47 50 50 49 45 42 43 47 47 46 44 46 48 46 47 50 50 51 50 49 50 51 52 53 53 53 53 53 53 52 54 54 53 54 53 53 53 51
36 39 37 40 37 38 38 37 42 46 44 42 45 48 47 48 51 53 56 56 54 53 54 56 58 59 59 59 59 60 62 60 58 57 58 59 57 58 58 59 59 57 58
34 42 41 39 41 39 39 41 42 43 49 52 50 54 55 55 54 56 58 53 53 52 52 52 56 56 56 57 57 59 58 58 60 61 62 62 62 64 64 63 63 63 62
39 38 38 41 43 42 40 41 45 52 53 53 50 49 48 48 50 53 53 49 49 49 50 51 49 49 53 55 57 58 57 58 61 61 62 65 66 65 68 70 69 69 70
32 40 39 37 37 36 38 35 35 36 38 39 39 39 39 41 43 45 46 46 47 48 49 50 52 53 55 57 57 59 59 60 61 63 67 69 70 70 71 74 74 76 77
22 23 24 24 24 25 27 29 29 30 30 30 30 30 32 35 37 39 40 42 44 46 48 50 52 55 56 58 60 62 63 64 65 67 68 70 71 70 72 76 77 81 82
19 19 19 21 23 24 23 23 22 23 25 26 27 26 27 28 31 32 36 39 41 44 44 47 52 57 58 61 64 65 67 69 70 71 72 74 76 76 76 77 78 79 83
19 20 20 21 20 22 22 21 25 26 26 26 27 31 31 32 35 38 41 45 48 49 55 56 56 60 63 65 68 69 70 70 72 76 78 79 80 82 82 84 84 84 83
23 24 24 23 24 22 23 25 30 30 30 29 31 33 33 34 37 41 44 46 49 51 53 58 61 63 63 68 71 73 74 77 80 82 82 80 83 85 83 84 88 90 91
25 26 27 28 28 27 28 30 32 35 37 39 35 36 37 40 42 44 47 47 53 55 61 63 65 63 68 70 72 76 78 80 83 83 83 83 87 92 91 90 90 93 96
29 29 29 31 29 30 32 35 38 39 41 41 43 43 42 46 46 49 50 55 53 56 63 67 69 72 69 70 76 78 82 88 88 86 87 87 93 99 97 95 96 100 103
32 32 31 32 33 36 38 38 40 41 42 44 44 47 49 51 55 57 61 63 65 69 67 69 71 74 78 84 84 86 92 94 98 92 98 98 101 103 106 103 103 106 109
36 36 35 35 37 39 40 41 42 44 44 45 49 51 54 55 59 62 65 67 69 72 75 77 78 77 86 88 90 90 91 89 97 96 108 108 111 116 120 122 121 119 120
40 39 38 40 42 41 42 44 46 48 49 49 52 56 60 61 64 66 67 72 75 75 76 79 82 86 86 88 92 95 99 98 95 98 98 108 113 116 125 129 135 139 136
43 42 43 44 46 48 50 51 52 55 55 56 58 63 66 70 72 73 75 77 80 81 83 85 90 93 96 99 100 104 110 113 106 96 97 104 115 127 131 143 143 142 142
47 48 50 51 53 56 58 58 60 62 62 63 66 69 72 75 78 80 82 84 86 87 88 91 97 101 104 104 105 111 117 119 116 117 106 107 116 122 126 141 149 150 152
55 56 56 59 60 62 63 65 67 69 71 71 73 76 78 80 83 86 88 90 92 92 94 98 102 104 109 110 113 117 124 125 121 121 121 118 126 130 130 125 125 133 138
Wind_Direction
194 178 172 175 180 199 243 242 239 234 237 250 254 253 254 263 268 266 259 261 258 255 254 257 256 253 262 257 253 248 244 238 240 241 232 227 225 223 222 227 230 232 236
175 175 177 182 185 193 209 212 226 227 236 240 253 257 266 264 248 250 253 257 261 258 256 254 255 258 261 259 260 258 248 245 240 242 241 232 232 229 218 221 223 232 236
178 183 196 191 194 204 204 217 228 230 235 240 247 242 248 253 254 250 248 250 257 264 263 260 259 261 266 268 268 264 258 253 249 243 244 240 240 224 227 227 227 221 231
187 184 202 203 199 204 208 204 217 229 234 240 243 248 257 244 251 253 249 250 254 254 257 253 254 248 257 268 265 263 260 256 254 253 246 246 240 235 230 235 236 234 230
206 194 198 207 210 211 218 221 219 227 234 240 248 252 255 255 248 250 246 247 250 251 250 252 253 255 255 255 259 261 260 255 253 252 252 254 246 239 237 234 237 238 237
199 202 208 211 216 221 228 227 230 233 238 241 242 249 251 259 267 263 253 250 251 253 254 254 255 257 260 258 261 260 260 258 255 252 251 248 248 249 244 239 238 238 239
203 206 213 221 225 230 233 236 240 236 239 245 242 246 258 269 272 270 268 262 260 262 260 260 260 261 263 262 262 261 260 259 259 260 256 254 252 247 247 247 243 241 243
206 216 224 227 227 235 235 241 242 239 242 244 243 249 254 272 274 270 266 264 264 267 268 265 266 264 264 263 263 259 260 263 262 262 261 259 255 253 251 247 248 249 248
213 211 226 226 230 235 242 246 246 248 252 255 251 265 269 272 273 276 277 272 268 271 268 275 275 271 269 267 268 268 267 265 265 264 264 263 262 259 256 251 249 249 250
216 213 228 232 233 238 244 250 252 254 262 262 258 270 273 275 273 282 282 273 271 271 278 276 280 280 277 274 272 272 273 273 272 268 266 263 262 264 262 256 254 252 251
219 223 224 231 238 244 249 258 252 252 260 264 264 270 274 275 281 283 282 280 279 279 276 278 279 279 278 274 275 277 276 274 274 274 269 265 266 267 263 262 260 257 254
232 224 226 230 235 240 247 250 256 261 260 263 267 270 274 278 278 279 276 277 278 279 279 278 277 277 278 278 278 276 275 274 273 272 270 266 263 264 262 261 260 260 260
238 239 235 238 241 256 261 262 259 254 259 265 274 270 274 276 275 278 278 280 279 279 276 275 276 276 275 274 273 271 269 268 268 268 267 267 265 263 262 261 257 258 258
243 245 247 250 252 257 261 264 265 263 264 268 272 273 272 274 275 277 279 280 280 280 279 280 280 279 278 277 276 276 274 274 272 271 270 265 263 262 262 260 260 261 256
248 250 252 255 258 258 262 264 266 270 274 279 280 281 280 281 282 284 286 287 287 287 286 286 286 285 283 282 282 282 281 280 279 276 275 272 268 267 266 260 258 257 258
247 247 249 255 262 267 270 269 273 274 271 274 276 279 286 287 287 293 292 294 293 290 296 294 291 287 285 284 284 282 281 279 277 277 276 276 275 273 269 267 264 261 257
254 253 264 266 265 266 264 264 267 274 273 279 282 288 289 290 291 291 294 293 290 292 288 287 289 287 282 281 279 279 280 278 276 276 276 277 276 274 275 273 270 265 262
258 260 263 261 266 271 266 264 274 279 285 287 284 287 289 294 294 293 293 291 291 291 289 287 287 283 280 278 279 278 275 273 272 271 273 270 268 266 266 268 268 267 265
264 262 261 261 260 270 274 277 281 284 287 291 290 292 293 294 294 296 295 292 293 291 292 288 287 279 279 280 275 274 270 268 271 269 264 262 261 262 262 262 262 263 262
264 262 266 265 266 272 276 280 285 286 288 294 296 297 292 294 294 291 289 288 287 290 292 290 288 286 283 279 277 272 270 269 268 267 262 262 261 260 258 256 256 257 260
265 267 273 273 274 277 282 285 286 287 292 295 297 296 294 292 292 289 288 288 290 289 289 287 286 283 286 284 284 281 272 268 265 265 263 266 268 267 256 255 257 257 255
265 269 272 278 281 282 283 287 289 294 296 295 294 293 292 292 292 291 291 292 291 292 293 290 289 289 291 293 292 286 280 277 271 275 267 266 268 265 263 259 259 256 250
269 269 274 277 280 282 286 290 291 296 298 295 294 293 292 291 291 293 293 293 293 293 293 295 296 297 295 295 301 298 296 290 282 282 282 275 272 269 262 261 259 259 256
268 268 269 274 279 284 289 292 295 297 299 297 293 293 294 295 295 294 294 295 294 295 295 297 299 298 299 300 300 301 301 297 289 288 285 282 278 269 267 262 260 260 259
267 269 271 275 281 285 288 289 293 296 298 297 296 296 294 294 294 295 296 296 297 295 296 297 298 299 302 302 305 305 302 298 294 295 283 284 278 271 270 265 263 260 260
271 272 274 277 282 285 288 290 292 294 296 298 296 296 295 295 294 296 297 297 298 297 297 298 300 300 301 303 306 305 304 298 301 296 292 286 282 281 278 273 269 264 263
Height
10780 10789 10796 10800 10804 10808 10808 10811 10811 10811 10811 10810 10812 10812 10813 10813 10813 10813 10814 10816 10817 10818 10819 10820 10821 10822 10823 10823 10824 10825 10826 10827 10828 10829 10829 10829 10829 10831 10832 10836 10839 10841 10843
10777 10785 10791 10794 10798 10800 10804 10805 10806 10805 10806 10806 10807 10806 10807 10808 10808 10809 10810 10811 10812 10813 10814 10815 10816 10817 10818 10819 10820 10821 10822 10822 10824 10825 10825 10826 10826 10827 10828 10829 10831 10835 10837
10775 10781 10786 10786 10788 10792 10794 10794 10796 10796 10796 10798 10801 10801 10803 10804 10805 10805 10807 10808 10808 10810 10810 10811 10812 10812 10812 10813 10813 10815 10816 10817 10818 10820 10820 10821 10822 10824 10825 10826 10827 10827 10831
10771 10774 10777 10782 10783 10786 10787 10789 10789 10791 10792 10795 10798 10800 10800 10800 10801 10802 10803 10803 10804 10804 10806 10807 10808 10808 10808 10808 10808 10809 10811 10812 10813 10814 10815 10816 10817 10819 10820 10822 10823 10824 10825
10768 10770 10776 10780 10781 10781 10783 10784 10784 10787 10789 10791 10792 10794 10795 10796 10797 10797 10797 10798 10798 10799 10800 10801 10802 10803 10804 10803 10803 10804 10805 10806 10808 10809 10810 10811 10812 10813 10813 10816 10817 10818 10818
10764 10768 10770 10775 10776 10776 10777 10778 10782 10784 10785 10786 10788 10789 10790 10791 10791 10792 10793 10793 10793 10794 10794 10795 10796 10797 10797 10798 10798 10799 10800 10800 10800 10802 10803 10804 10805 10807 10807 10808 10809 10810 10810
10762 10763 10766 10768 10770 10771 10773 10774 10776 10777 10779 10781 10781 10783 10784 10785 10786 10787 10788 10789 10789 10789 10789 10788 10789 10789 10790 10791 10792 10792 10793 10794 10795 10795 10796 10797 10799 10799 10800 10802 10802 10802 10803
10759 10763 10764 10765 10764 10765 10767 10768 10770 10771 10774 10775 10777 10778 10779 10780 10781 10782 10782 10782 10783 10783 10783 10783 10783 10782 10782 10783 10784 10785 10785 10786 10787 10788 10789 10790 10792 10793 10794 10794 10794 10795 10796
10756 10759 10758 10759 10761 10762 10762 10763 10765 10768 10771 10772 10773 10774 10774 10774 10775 10775 10775 10775 10775 10775 10775 10775 10775 10775 10775 10775 10776 10777 10777 10778 10778 10780 10781 10780 10783 10784 10786 10786 10786 10787 10787
10752 10754 10756 10757 10759 10759 10760 10761 10762 10763 10765 10765 10766 10767 10767 10766 10767 10767 10767 10768 10768 10767 10768 10768 10767 10767 10766 10765 10766 10766 10768 10769 10770 10770 10772 10770 10772 10773 10774 10775 10776 10777 10777
10749 10750 10751 10753 10755 10755 10756 10756 10757 10758 10759 10759 10760 10759 10758 10758 10757 10755 10755 10756 10756 10756 10756 10755 10755 10755 10755 10754 10754 10754 10754 10755 10757 10759 10761 10759 10761 10762 10764 10764 10764 10765 10767
10746 10746 10747 10749 10750 10752 10752 10752 10752 10752 10752 10752 10751 10749 10749 10748 10747 10747 10747 10745 10745 10744 10744 10743 10742 10742 10742 10741 10740 10741 10741 10741 10742 10743 10746 10745 10748 10750 10751 10752 10752 10751 10752
10740 10741 10741 10743 10744 10744 10745 10745 10745 10745 10745 10744 10743 10742 10741 10740 10741 10740 10738 10736 10735 10733 10732 10731 10730 10729 10728 10727 10727 10726 10726 10725 10725 10726 10728 10728 10731 10732 10733 10735 10737 10737 10738
10734 10735 10737 10738 10738 10738 10739 10738 10737 10737 10737 10736 10735 10734 10734 10732 10731 10730 10728 10726 10724 10722 10722 10721 10720 10719 10718 10717 10715 10714 10713 10713 10712 10712 10712 10712 10712 10713 10716 10717 10718 10719 10721
10729 10730 10731 10732 10732 10732 10732 10731 10731 10730 10729 10729 10728 10726 10725 10724 10722 10721 10719 10716 10714 10712 10711 10709 10707 10705 10704 10702 10701 10700 10699 10697 10696 10695 10695 10694 10693 10694 10696 10697 10699 10702 10701
10724 10724 10725 10725 10725 10725 10724 10724 10724 10723 10722 10721 10720 10719 10718 10716 10714 10712 10709 10707 10705 10703 10700 10698 10697 10694 10692 10690 10687 10685 10683 10680 10678 10677 10676 10675 10674 10674 10675 10676 10676 10678 10681
10719 10720 10720 10720 10719 10718 10718 10717 10716 10715 10714 10713 10712 10710 10708 10705 10703 10701 10699 10696 10694 10691 10689 10686 10684 10681 10679 10676 10672 10669 10667 10664 10661 10658 10658 10657 10654 10652 10652 10653 10653 10655 10657
10714 10714 10714 10713 10713 10712 10711 10710 10709 10707 10706 10703 10701 10699 10696 10694 10693 10690 10687 10684 10682 10679 10676 10673 10670 10666 10662 10660 10656 10652 10649 10645 10641 10639 10637 10636 10633 10629 10626 10626 10628 10631 10631
10708 10708 10707 10707 10706 10705 10704 10702 10700 10698 10695 10694 10691 10688 10685 10683 10680 10678 10675 10672 10669 10666 10663 10660 10655 10652 10648 10644 10640 10635 10630 10624 10622 10618 10615 10611 10607 10606 10603 10602 10600 10599 10598
10701 10700 10699 10698 10698 10696 10694 10692 10691 10688 10686 10683 10680 10677 10674 10671 10669 10666 10663 10660 10656 10652 10648 10645 10641 10636 10632 10627 10621 10615 10608 10601 10597 10595 10590 10585 10582 10577 10578 10578 10574 10568 10569
10693 10692 10691 10690 10689 10687 10686 10684 10681 10678 10675 10671 10668 10666 10664 10661 10658 10654 10650 10645 10640 10635 10630 10626 10621 10616 10609 10605 10603 10596 10586 10579 10569 10568 10559 10554 10549 10545 10545 10545 10540 10538 10539
10683 10683 10682 10681 10679 10677 10675 10673 10670 10667 10664 10661 10657 10654 10651 10646 10642 10637 10632 10627 10623 10617 10612 10606 10601 10595 10586 10577 10574 10569 10569 10556 10544 10539 10530 10521 10514 10508 10504 10504 10499 10497 10501
10673 10672 10671 10669 10667 10665 10663 10661 10658 10655 10652 10648 10644 10640 10636 10631 10626 10620 10615 10609 10603 10597 10589 10581 10575 10567 10560 10549 10539 10532 10532 10528 10520 10508 10496 10484 10474 10465 10460 10455 10453 10453 10458
10662 10660 10659 10656 10654 10652 10650 10647 10644 10641 10637 10632 10628 10623 10618 10613 10607 10601 10594 10587 10579 10571 10564 10556 10547 10538 10528 10520 10510 10496 10486 10480 10474 10484 10467 10451 10434 10425 10412 10408 10403 10400 10404
10650 10648 10646 10643 10641 10638 10636 10632 10628 10625 10621 10616 10610 10605 10599 10592 10586 10580 10572 10563 10554 10546 10538 10528 10519 10508 10497 10489 10476 10463 10451 10438 10422 10410 10421 10408 10394 10379 10366 10354 10350 10348 10352
10637 10634 10631 10628 10626 10623 10619 10616 10612 10608 10603 10598 10593 10586 10579 10571 10563 10555 10548 10538 10529 10520 10510 10501 10491 10479 10467 10454 10438 10425 10411 10395 10376 10358 10347 10348 10332 10321 10309 10305 10298 10296 10299